Time,TemperatureF,DewpointF,PressureIn,WindDirection,WindDirectionDegrees,WindSpeedMPH,WindSpeedGustMPH,Humidity,HourlyPrecipIn,Conditions,Clouds,dailyrainin,SolarRadiationWatts/m^2,SoftwareType,DateUTC
2013-02-17 00:00:00,44.0,36.0,30.03,North,7,5.0,-999.0,74,0.00,,,-99.99,-2.500000,,2013-02-17 08:00:00,
2013-02-17 00:22:00,44.0,36.0,30.03,North,7,5.0,-999.0,74,0.00,,,-99.99,-2.500000,,2013-02-17 08:22:00,
2013-02-17 00:32:00,44.0,36.0,30.03,North,7,5.0,-999.0,74,0.00,,,-99.99,-2.500000,,2013-02-17 08:32:00,
2013-02-17 00:42:00,44.0,36.0,30.03,North,7,5.0,-999.0,74,0.00,,,-99.99,-2.500000,,2013-02-17 08:42:00,
2013-02-17 00:52:00,44.0,36.0,30.03,North,7,5.0,-999.0,74,0.00,,,-99.99,-2.500000,,2013-02-17 08:52:00,
2013-02-17 01:00:00,44.0,35.0,30.02,NNE,24,2.0,-999.0,70,0.00,,,-99.99,-2.100000,,2013-02-17 09:00:00,
2013-02-17 01:21:00,44.0,35.0,30.02,NNE,24,2.0,-999.0,70,0.00,,,-99.99,-2.100000,,2013-02-17 09:21:00,
2013-02-17 01:32:00,44.0,35.0,30.02,NNE,24,2.0,-999.0,70,0.00,,,-99.99,-2.100000,,2013-02-17 09:32:00,
2013-02-17 01:42:00,44.0,35.0,30.02,NNE,24,2.0,-999.0,70,0.00,,,-99.99,-2.100000,,2013-02-17 09:42:00,
2013-02-17 01:52:00,44.0,35.0,30.02,NNE,24,2.0,-999.0,70,0.00,,,-99.99,-2.100000,,2013-02-17 09:52:00,
2013-02-17 02:00:00,42.0,34.0,30.01,NNW,337,2.0,-999.0,74,0.00,,,-99.99,-2.600000,,2013-02-17 10:00:00,
2013-02-17 02:22:00,42.0,34.0,30.01,NNW,337,2.0,-999.0,74,0.00,,,-99.99,-2.600000,,2013-02-17 10:22:00,
2013-02-17 02:32:00,42.0,34.0,30.01,NNW,337,2.0,-999.0,74,0.00,,,-99.99,-2.600000,,2013-02-17 10:32:00,
2013-02-17 02:42:00,42.0,34.0,30.01,NNW,337,2.0,-999.0,74,0.00,,,-99.99,-2.600000,,2013-02-17 10:42:00,
2013-02-17 02:52:00,42.0,34.0,30.01,NNW,337,2.0,-999.0,74,0.00,,,-99.99,-2.600000,,2013-02-17 10:52:00,
2013-02-17 03:00:00,43.0,34.0,29.99,NE,48,5.0,-999.0,69,0.00,,,-99.99,-2.100000,,2013-02-17 11:00:00,
2013-02-17 03:22:00,43.0,34.0,29.99,NE,48,5.0,-999.0,69,0.00,,,-99.99,-2.100000,,2013-02-17 11:22:00,
2013-02-17 03:32:00,43.0,34.0,29.99,NE,48,5.0,-999.0,69,0.00,,,-99.99,-2.100000,,2013-02-17 11:32:00,
2013-02-17 03:42:00,43.0,34.0,29.99,NE,48,5.0,-999.0,69,0.00,,,-99.99,-2.100000,,2013-02-17 11:42:00,
2013-02-17 03:52:00,43.0,34.0,29.99,NE,48,5.0,-999.0,69,0.00,,,-99.99,-2.100000,,2013-02-17 11:52:00,
2013-02-17 04:00:00,43.0,33.0,29.98,North,354,3.0,-999.0,69,0.00,,,-99.99,-2.700000,,2013-02-17 12:00:00,
2013-02-17 04:22:00,43.0,33.0,29.98,North,354,3.0,-999.0,69,0.00,,,-99.99,-2.700000,,2013-02-17 12:22:00,
2013-02-17 04:32:00,43.0,33.0,29.98,North,354,3.0,-999.0,69,0.00,,,-99.99,-2.700000,,2013-02-17 12:32:00,
2013-02-17 04:42:00,43.0,33.0,29.98,North,354,3.0,-999.0,69,0.00,,,-99.99,-2.700000,,2013-02-17 12:42:00,
2013-02-17 04:52:00,43.0,33.0,29.98,North,354,3.0,-999.0,69,0.00,,,-99.99,-2.700000,,2013-02-17 12:52:00,
2013-02-17 05:00:00,41.0,33.0,29.97,NNW,336,2.0,-999.0,71,0.00,,,-99.99,-2.500000,,2013-02-17 13:00:00,
2013-02-17 05:22:00,41.0,33.0,29.97,NNW,336,2.0,-999.0,71,0.00,,,-99.99,-2.500000,,2013-02-17 13:22:00,
2013-02-17 05:32:00,41.0,33.0,29.97,NNW,336,2.0,-999.0,71,0.00,,,-99.99,-2.500000,,2013-02-17 13:32:00,
2013-02-17 05:42:00,41.0,33.0,29.97,NNW,336,2.0,-999.0,71,0.00,,,-99.99,-2.500000,,2013-02-17 13:42:00,
2013-02-17 05:52:00,41.0,33.0,29.97,NNW,336,2.0,-999.0,71,0.00,,,-99.99,-2.500000,,2013-02-17 13:52:00,
2013-02-17 06:00:00,40.0,32.0,29.97,NNW,328,2.0,-999.0,73,0.00,,,-99.99,-2.600000,,2013-02-17 14:00:00,
2013-02-17 06:22:00,40.0,32.0,29.97,NNW,328,2.0,-999.0,73,0.00,,,-99.99,-2.600000,,2013-02-17 14:22:00,
2013-02-17 06:32:00,40.0,32.0,29.97,NNW,328,2.0,-999.0,73,0.00,,,-99.99,-2.600000,,2013-02-17 14:32:00,
2013-02-17 06:42:00,40.0,32.0,29.97,NNW,328,2.0,-999.0,73,0.00,,,-99.99,-2.600000,,2013-02-17 14:42:00,
2013-02-17 06:53:00,40.0,32.0,29.97,NNW,328,2.0,-999.0,73,0.00,,,-99.99,-2.600000,,2013-02-17 14:53:00,
2013-02-17 07:00:00,36.0,31.0,29.98,North,355,2.0,-999.0,81,0.00,,,-99.99,-1.800000,,2013-02-17 15:00:00,
2013-02-17 07:22:00,36.0,31.0,29.98,North,355,2.0,-999.0,81,0.00,,,-99.99,-1.800000,,2013-02-17 15:22:00,
2013-02-17 07:32:00,36.0,31.0,29.98,North,355,2.0,-999.0,81,0.00,,,-99.99,-1.800000,,2013-02-17 15:32:00,
2013-02-17 07:42:00,36.0,31.0,29.98,North,355,2.0,-999.0,81,0.00,,,-99.99,-1.800000,,2013-02-17 15:42:00,
2013-02-17 07:52:00,36.0,31.0,29.98,North,355,2.0,-999.0,81,0.00,,,-99.99,-1.800000,,2013-02-17 15:52:00,
2013-02-17 09:00:00,46.0,32.0,30.00,North,11,3.0,-999.0,58,0.00,,,-99.99,161.800003,,2013-02-17 17:00:00,
2013-02-17 09:21:00,46.0,32.0,30.00,North,11,3.0,-999.0,58,0.00,,,-99.99,161.800003,,2013-02-17 17:21:00,
2013-02-17 09:32:00,46.0,32.0,30.00,North,11,3.0,-999.0,58,0.00,,,-99.99,161.800003,,2013-02-17 17:32:00,
2013-02-17 09:42:00,46.0,32.0,30.00,North,11,3.0,-999.0,58,0.00,,,-99.99,161.800003,,2013-02-17 17:42:00,
2013-02-17 09:52:00,46.0,32.0,30.00,North,11,3.0,-999.0,58,0.00,,,-99.99,161.800003,,2013-02-17 17:52:00,
2013-02-17 11:00:00,61.0,32.0,30.01,SW,226,2.0,-999.0,34,0.00,,,-99.99,565.099976,,2013-02-17 19:00:00,
2013-02-17 11:22:00,61.0,32.0,30.01,SW,226,2.0,-999.0,34,0.00,,,-99.99,565.099976,,2013-02-17 19:22:00,
2013-02-17 11:32:00,61.0,32.0,30.01,SW,226,2.0,-999.0,34,0.00,,,-99.99,565.099976,,2013-02-17 19:32:00,
2013-02-17 11:42:00,61.0,32.0,30.01,SW,226,2.0,-999.0,34,0.00,,,-99.99,565.099976,,2013-02-17 19:42:00,
2013-02-17 11:52:00,61.0,32.0,30.01,SW,226,2.0,-999.0,34,0.00,,,-99.99,565.099976,,2013-02-17 19:52:00,
2013-02-17 12:00:00,60.0,33.0,29.99,NNE,14,3.0,-999.0,35,0.00,,,-99.99,641.799988,,2013-02-17 20:00:00,
2013-02-17 12:22:00,60.0,33.0,29.99,NNE,14,3.0,-999.0,35,0.00,,,-99.99,641.799988,,2013-02-17 20:22:00,
2013-02-17 12:32:00,60.0,33.0,29.99,NNE,14,3.0,-999.0,35,0.00,,,-99.99,641.799988,,2013-02-17 20:32:00,
2013-02-17 12:42:00,60.0,33.0,29.99,NNE,14,3.0,-999.0,35,0.00,,,-99.99,641.799988,,2013-02-17 20:42:00,
2013-02-17 12:52:00,60.0,33.0,29.99,NNE,14,3.0,-999.0,35,0.00,,,-99.99,641.799988,,2013-02-17 20:52:00,
2013-02-17 13:00:00,63.0,35.0,29.98,SSW,192,2.0,-999.0,35,0.00,,,-99.99,656.599976,,2013-02-17 21:00:00,
2013-02-17 13:21:00,63.0,35.0,29.98,SSW,192,2.0,-999.0,35,0.00,,,-99.99,656.599976,,2013-02-17 21:21:00,
2013-02-17 13:32:00,63.0,35.0,29.98,SSW,192,2.0,-999.0,35,0.00,,,-99.99,656.599976,,2013-02-17 21:32:00,
2013-02-17 13:42:00,63.0,35.0,29.98,SSW,192,2.0,-999.0,35,0.00,,,-99.99,656.599976,,2013-02-17 21:42:00,
2013-02-17 13:53:00,63.0,35.0,29.98,SSW,192,2.0,-999.0,35,0.00,,,-99.99,656.599976,,2013-02-17 21:53:00,
2013-02-17 14:00:00,63.0,38.0,29.96,SSW,200,4.0,-999.0,40,0.00,,,-99.99,614.799988,,2013-02-17 22:00:00,
2013-02-17 14:22:00,63.0,38.0,29.96,SSW,200,4.0,-999.0,40,0.00,,,-99.99,614.799988,,2013-02-17 22:22:00,
2013-02-17 14:32:00,63.0,38.0,29.96,SSW,200,4.0,-999.0,40,0.00,,,-99.99,614.799988,,2013-02-17 22:32:00,
2013-02-17 14:42:00,63.0,38.0,29.96,SSW,200,4.0,-999.0,40,0.00,,,-99.99,614.799988,,2013-02-17 22:42:00,
2013-02-17 14:52:00,63.0,38.0,29.96,SSW,200,4.0,-999.0,40,0.00,,,-99.99,614.799988,,2013-02-17 22:52:00,
2013-02-17 16:00:00,59.0,35.0,29.95,SE,143,1.0,-999.0,41,0.00,,,-99.99,140.600006,,2013-02-18 00:00:00,
2013-02-17 16:22:00,59.0,35.0,29.95,SE,143,1.0,-999.0,41,0.00,,,-99.99,140.600006,,2013-02-18 00:22:00,
2013-02-17 16:32:00,59.0,35.0,29.95,SE,143,1.0,-999.0,41,0.00,,,-99.99,140.600006,,2013-02-18 00:32:00,
2013-02-17 16:42:00,59.0,35.0,29.95,SE,143,1.0,-999.0,41,0.00,,,-99.99,140.600006,,2013-02-18 00:42:00,
2013-02-17 16:52:00,59.0,35.0,29.95,SE,143,1.0,-999.0,41,0.00,,,-99.99,140.600006,,2013-02-18 00:52:00,
2013-02-17 17:00:00,56.0,38.0,29.95,South,187,1.0,-999.0,51,0.00,,,-99.99,40.099998,,2013-02-18 01:00:00,
2013-02-17 17:21:00,56.0,38.0,29.95,South,187,1.0,-999.0,51,0.00,,,-99.99,40.099998,,2013-02-18 01:21:00,
2013-02-17 17:32:00,56.0,38.0,29.95,South,187,1.0,-999.0,51,0.00,,,-99.99,40.099998,,2013-02-18 01:32:00,
2013-02-17 17:42:00,56.0,38.0,29.95,South,187,1.0,-999.0,51,0.00,,,-99.99,40.099998,,2013-02-18 01:42:00,
2013-02-17 17:52:00,56.0,38.0,29.95,South,187,1.0,-999.0,51,0.00,,,-99.99,40.099998,,2013-02-18 01:52:00,
2013-02-17 18:00:00,47.0,40.0,29.94,North,0,0.0,-999.0,74,0.00,,,-99.99,9.200000,,2013-02-18 02:00:00,
2013-02-17 18:22:00,47.0,40.0,29.94,North,0,0.0,-999.0,74,0.00,,,-99.99,9.200000,,2013-02-18 02:22:00,
2013-02-17 18:32:00,47.0,40.0,29.94,North,0,0.0,-999.0,74,0.00,,,-99.99,9.200000,,2013-02-18 02:32:00,
2013-02-17 18:42:00,47.0,40.0,29.94,North,0,0.0,-999.0,74,0.00,,,-99.99,9.200000,,2013-02-18 02:42:00,
2013-02-17 18:52:00,47.0,40.0,29.94,North,0,0.0,-999.0,74,0.00,,,-99.99,9.200000,,2013-02-18 02:52:00,
2013-02-17 19:00:00,43.0,38.0,29.94,North,0,0.0,-999.0,82,0.00,,,-99.99,-2.200000,,2013-02-18 03:00:00,
2013-02-17 19:22:00,43.0,38.0,29.94,North,0,0.0,-999.0,82,0.00,,,-99.99,-2.200000,,2013-02-18 03:22:00,
2013-02-17 19:32:00,43.0,38.0,29.94,North,0,0.0,-999.0,82,0.00,,,-99.99,-2.200000,,2013-02-18 03:32:00,
2013-02-17 19:42:00,43.0,38.0,29.94,North,0,0.0,-999.0,82,0.00,,,-99.99,-2.200000,,2013-02-18 03:42:00,
2013-02-17 19:52:00,43.0,38.0,29.94,North,0,0.0,-999.0,82,0.00,,,-99.99,-2.200000,,2013-02-18 03:52:00,
2013-02-17 20:00:00,40.0,37.0,29.95,NNE,21,1.0,-999.0,88,0.00,,,-99.99,-1.200000,,2013-02-18 04:00:00,
2013-02-17 20:22:00,40.0,37.0,29.95,NNE,21,1.0,-999.0,88,0.00,,,-99.99,-1.200000,,2013-02-18 04:22:00,
2013-02-17 20:32:00,40.0,37.0,29.95,NNE,21,1.0,-999.0,88,0.00,,,-99.99,-1.200000,,2013-02-18 04:32:00,
2013-02-17 20:42:00,40.0,37.0,29.95,NNE,21,1.0,-999.0,88,0.00,,,-99.99,-1.200000,,2013-02-18 04:42:00,
2013-02-17 20:52:00,40.0,37.0,29.95,NNE,21,1.0,-999.0,88,0.00,,,-99.99,-1.200000,,2013-02-18 04:52:00,
2013-02-17 22:00:00,36.0,34.0,29.96,SW,230,0.0,-999.0,92,0.00,,,-99.99,-1.500000,,2013-02-18 06:00:00,
2013-02-17 22:22:00,36.0,34.0,29.96,SW,230,0.0,-999.0,92,0.00,,,-99.99,-1.500000,,2013-02-18 06:22:00,
2013-02-17 22:32:00,36.0,34.0,29.96,SW,230,0.0,-999.0,92,0.00,,,-99.99,-1.500000,,2013-02-18 06:32:00,
2013-02-17 22:42:00,36.0,34.0,29.96,SW,230,0.0,-999.0,92,0.00,,,-99.99,-1.500000,,2013-02-18 06:42:00,
2013-02-17 22:52:00,36.0,34.0,29.96,SW,230,0.0,-999.0,92,0.00,,,-99.99,-1.500000,,2013-02-18 06:52:00,
2013-02-17 23:00:00,38.0,33.0,29.96,South,188,1.0,-999.0,83,0.00,,,-99.99,-1.500000,,2013-02-18 07:00:00,
2013-02-17 23:22:00,38.0,33.0,29.96,South,188,1.0,-999.0,83,0.00,,,-99.99,-1.500000,,2013-02-18 07:22:00,
2013-02-17 23:32:00,38.0,33.0,29.96,South,188,1.0,-999.0,83,0.00,,,-99.99,-1.500000,,2013-02-18 07:32:00,
2013-02-17 23:42:00,38.0,33.0,29.96,South,188,1.0,-999.0,83,0.00,,,-99.99,-1.500000,,2013-02-18 07:42:00,
2013-02-17 23:52:00,38.0,33.0,29.96,South,188,1.0,-999.0,83,0.00,,,-99.99,-1.500000,,2013-02-18 07:52:00,